This is the latest recevied weather packets stored in our database for station/object GBTWP-2. If no packets are shown the sender has not sent any weather packets the latest 10 day(s).
| Time | Temp. | Humidity | Pressure | Rain* | Wind** | Luminosity | Snow |
|---|---|---|---|---|---|---|---|
| 1777851902 | 13.89° C | 52% | 1010.7 hPa | 0 mm | - | 16 W/m² | - |
| 1777851301 | 14.44° C | 51% | 1010.7 hPa | 0 mm | - | 17 W/m² | - |
| 1777851002 | 14.44° C | 51% | 1010.8 hPa | 0 mm | - | 21 W/m² | - |
| 1777850702 | 14.44° C | 50% | 1010.8 hPa | 0 mm | - | 30 W/m² | - |
| 1777850102 | 14.44° C | 51% | 1010.9 hPa | 0 mm | - | 17 W/m² | - |
| 1777849501 | 14.44° C | 49% | 1010.8 hPa | 0 mm | - | 18 W/m² | - |
| 1777849202 | 15° C | 50% | 1010.7 hPa | 0 mm | - | 19 W/m² | - |
| 1777848602 | 15° C | 47% | 1010.9 hPa | 0 mm | - | 17 W/m² | - |
| 1777848002 | 15° C | 46% | 1011.1 hPa | 0 mm | - | 17 W/m² | - |
| 1777847701 | 15° C | 46% | 1011 hPa | 0 mm | - | 16 W/m² | - |
| 1777847402 | 15° C | 46% | 1011.2 hPa | 0 mm | - | 20 W/m² | - |
| 1777847101 | 15.56° C | 45% | 1011.1 hPa | 0 mm | - | 20 W/m² | - |
| 1777846802 | 15.56° C | 45% | 1011 hPa | 0 mm | - | 25 W/m² | - |
| 1777846501 | 15.56° C | 46% | 1011.1 hPa | 0 mm | - | 32 W/m² | - |
| 1777846202 | 15.56° C | 44% | 1011.1 hPa | 0 mm | - | 34 W/m² | - |
| 1777845902 | 16.11° C | 43% | 1011.2 hPa | 0 mm | - | 39 W/m² | - |
| 1777845302 | 16.11° C | 45% | 1011.1 hPa | 0 mm | - | 47 W/m² | - |
| 1777845002 | 16.11° C | 43% | 1011 hPa | 0 mm | - | 76 W/m² | - |
| 1777844402 | 16.11° C | 43% | 1010.9 hPa | 0 mm | - | 78 W/m² | - |
| 1777844102 | 16.11° C | 42% | 1010.9 hPa | 0 mm | - | 79 W/m² | - |
| 1777843502 | 16.67° C | 42% | 1010.9 hPa | 0 mm | - | 64 W/m² | - |
| 1777843202 | 17.22° C | 40% | 1010.9 hPa | 0 mm | - | 120 W/m² | - |
| 1777842902 | 16.67° C | 40% | 1010.8 hPa | 0 mm | - | 103 W/m² | - |
| 1777841702 | 16.67° C | 42% | 1011.1 hPa | 0 mm | - | 110 W/m² | - |
| 1777841401 | 17.22° C | 40% | 1011.1 hPa | 0 mm | - | 79 W/m² | - |
* Rain latest hour (hover to see other rain measurements)
** Current wind speed in m/s (hover to see current wind gust speed)